Probability
0 0 0 0 0 1 1 1 1 1 1 2 3 3 1 1 2 1 1 3 4 4 7 10 13 16 17 19 21 23 24 24 25 26 26 25 22 19 20 19 14 10 9 7
0 0 0 0 2 3 3 3 2 2 3 3 3 2 1 1 2 2 1 2 3 4 6 11 14 18 21 22 23 24 25 25 27 27 26 24 21 19 19 17 13 10 8 6
0 0 1 2 4 5 5 4 4 3 4 4 3 1 0 1 1 1 0 1 3 5 7 10 15 20 24 25 25 25 25 27 29 29 25 22 18 18 18 16 12 10 8 7
1 1 2 5 5 4 4 4 3 3 4 5 4 1 0 0 0 0 0 0 2 4 7 9 13 20 24 25 25 25 25 27 30 28 25 21 18 16 16 15 13 11 9 8
4 2 3 5 5 3 3 4 2 2 3 5 5 3 1 0 0 0 1 1 1 3 6 9 12 18 23 24 24 23 23 26 27 27 25 22 18 17 17 16 14 12 10 8
7 5 5 5 4 2 3 4 2 1 2 4 5 4 2 2 2 1 2 3 3 5 7 9 12 17 22 23 23 22 22 23 25 25 23 18 16 19 19 17 15 13 11 10
8 7 7 7 5 4 4 4 2 1 2 3 4 4 4 4 4 4 5 7 8 9 10 11 13 17 20 22 24 23 21 21 23 22 18 15 17 21 21 18 15 13 11 10
8 7 6 5 5 5 4 3 2 2 3 3 4 4 5 6 6 7 8 11 12 13 14 13 14 17 18 20 23 23 20 19 20 21 18 16 20 23 22 19 15 11 9 7
5 4 3 2 2 2 2 1 1 2 2 2 3 3 5 7 8 9 10 12 13 14 15 15 16 17 17 19 22 22 20 18 19 22 21 19 18 20 19 17 12 8 6 6
2 1 0 0 0 0 0 0 0 1 1 1 1 2 4 6 8 9 9 10 11 12 14 16 17 16 16 18 20 21 20 18 19 21 22 18 15 14 14 12 9 7 7 7
0 0 0 0 0 0 0 0 0 0 0 0 1 2 4 5 6 6 5 6 7 7 10 13 15 14 15 18 20 19 18 18 18 19 19 15 12 10 8 7 7 6 6 6
1 1 1 0 0 0 0 0 0 0 0 0 1 2 3 4 4 3 3 2 2 2 5 8 10 10 13 17 18 18 17 17 17 17 16 12 9 7 5 3 3 3 3 2
2 2 1 0 0 0 0 0 0 0 0 0 1 1 1 2 2 2 2 1 0 0 1 3 5 7 9 12 14 15 15 15 15 15 14 11 6 5 4 2 0 0 0 0
2 1 1 0 0 0 0 0 0 0 0 0 0 0 0 1 1 1 1 1 0 0 0 1 2 5 7 8 9 11 12 12 13 14 14 10 7 6 5 2 0 0 0 0
1 1 1 0 0 0 0 0 0 0 0 0 0 0 0 0 0 0 0 0 1 1 1 1 2 4 6 7 7 9 10 10 11 14 12 9 7 5 3 1 0 0 1 1
0 0 0 0 0 0 0 0 0 0 0 0 0 0 0 0 0 0 1 1 2 3 3 3 3 4 6 6 7 8 8 7 8 10 9 7 5 4 2 0 0 0 0 0
0 0 0 0 0 0 0 0 0 0 0 0 0 0 0 0 1 1 2 3 3 3 3 3 3 2 4 5 6 7 5 4 5 6 6 4 4 4 2 1 0 0 0 0
0 0 0 0 0 0 0 0 0 0 0 0 0 0 0 1 2 3 3 3 3 2 2 3 2 1 2 3 4 4 3 3 4 6 5 3 3 3 3 1 0 0 0 0
0 0 0 0 0 0 0 0 0 0 0 0 0 0 1 2 3 3 3 2 1 1 2 1 1 0 1 2 3 2 1 2 4 6 5 3 2 2 2 1 0 0 0 0
0 0 0 0 0 0 0 0 0 0 0 0 1 1 2 3 3 2 1 1 0 1 1 1 0 0 1 2 2 1 1 1 4 5 5 4 3 2 1 2 1 1 0 0
0 0 0 0 0 0 0 0 0 0 1 1 2 2 2 2 2 1 0 0 0 0 0 0 0 0 1 1 1 0 0 1 3 4 4 4 4 3 3 3 3 2 1 0
0 0 0 0 0 0 1 1 0 1 2 2 2 2 1 1 1 0 0 0 0 0 0 0 0 0 0 0 0 0 0 1 2 3 3 3 4 4 5 5 5 4 2 1
0 0 0 0 0 0 1 2 2 2 2 1 1 1 0 0 0 0 0 0 0 0 0 0 0 0 0 0 0 0 0 1 2 3 3 3 3 4 4 5 5 4 3 2
0 0 0 0 0 0 1 2 2 1 1 0 0 0 0 0 0 0 0 0 0 0 0 0 0 0 0 0 0 0 0 1 3 3 3 3 3 3 3 4 5 4 3 3
0 0 1 1 1 1 1 1 1 0 0 0 0 0 0 0 0 0 0 0 0 0 0 0 0 0 0 0 0 0 1 2 3 3 3 3 3 3 3 3 4 4 4 5
0 1 2 1 1 0 0 0 0 0 0 0 0 0 0 0 0 0 0 0 0 0 0 0 0 0 0 0 0 0 1 2 3 3 3 3 3 3 3 3 3 4 4 5
1 2 2 1 0 0 0 0 0 0 0 0 0 0 0 0 0 0 0 0 0 0 0 0 0 0 0 0 0 0 1 2 3 3 3 3 3 3 3 3 3 4 4 3
Wind_Speed
8 7 6 7 7 8 10 10 10 8 7 5 5 5 5 5 5 4 3 3 2 2 2 2 3 3 4 5 5 6 7 7 7 7 7 7 7 7 6 6 7 6 6 6
9 7 7 8 8 8 8 9 9 8 7 4 3 3 4 5 5 5 4 4 3 3 3 3 3 4 4 5 5 6 6 6 6 7 7 7 7 7 7 7 6 6 7 7
9 8 9 9 6 6 5 5 6 7 4 4 4 4 5 6 6 6 5 5 4 4 4 4 4 4 5 5 5 5 6 6 6 7 7 7 7 7 7 7 7 7 7 7
7 8 12 1 2 1 3 2 4 4 4 5 5 5 4 4 6 6 6 6 4 4 3 3 3 3 4 4 5 5 6 5 5 6 7 7 7 7 7 6 7 7 7 7
7 10 7 4 1 2 4 1 4 4 5 5 5 5 1 5 6 6 6 5 4 4 3 2 2 3 4 4 5 5 6 6 6 6 6 7 7 7 7 7 7 7 7 7
8 10 7 1 2 3 5 3 4 5 6 6 6 5 3 8 8 7 6 5 4 3 2 2 2 2 3 4 5 5 5 5 5 6 6 6 7 7 6 7 7 7 6 7
9 8 1 4 3 3 5 2 5 5 5 6 6 6 7 8 7 6 5 5 4 3 2 2 2 2 3 4 5 4 4 5 5 5 6 6 6 6 6 6 6 6 6 6
6 7 2 5 1 2 4 4 4 5 5 6 6 6 7 7 7 6 5 4 4 3 2 2 2 3 3 4 4 4 4 4 5 5 5 5 6 6 6 6 6 6 5 5
3 1 5 5 4 4 3 4 5 5 6 5 6 6 7 7 7 6 5 4 4 3 2 2 2 3 4 4 3 4 4 4 4 4 4 5 6 6 6 6 5 5 5 5
2 1 1 2 3 4 4 5 6 6 6 6 6 6 7 6 6 6 6 5 4 4 3 2 2 3 3 3 2 3 4 4 4 4 4 4 4 5 5 5 5 5 4 4
3 2 3 1 4 6 6 5 6 5 5 6 5 6 6 6 6 6 5 5 5 4 4 4 3 3 3 2 2 3 4 4 4 4 4 4 4 3 4 3 3 4 4 4
3 4 5 5 5 6 6 6 6 6 6 6 6 6 6 6 5 5 5 4 4 5 4 4 3 3 3 2 2 3 4 4 3 4 4 4 4 3 1 2 2 1 2 3
5 7 7 8 8 8 7 7 7 6 6 6 6 6 6 6 5 5 5 5 5 5 4 4 4 3 3 3 3 4 4 4 3 4 4 4 4 4 3 3 3 3 4 3
5 6 7 7 8 8 8 8 7 7 6 6 6 7 6 6 6 6 6 6 5 5 5 4 4 4 4 3 3 4 5 4 4 3 4 4 4 4 4 4 4 4 5 7
6 7 7 8 8 8 7 7 7 7 6 6 6 6 6 6 6 6 6 6 5 5 5 5 5 4 4 4 4 4 4 4 3 3 4 4 4 5 5 5 4 4 4 5
7 6 6 7 7 8 8 8 7 7 7 7 7 7 7 6 6 6 6 5 5 5 5 5 4 4 4 4 4 4 3 3 4 4 4 4 5 5 5 5 5 4 4 4
7 6 7 7 8 8 8 8 8 8 7 7 7 7 7 6 6 5 5 5 5 5 5 5 4 4 4 4 4 3 3 3 6 5 5 4 4 4 4 4 5 4 4 3
6 7 7 8 8 8 8 8 8 8 7 6 6 6 6 6 6 5 5 5 4 5 5 5 5 5 4 4 4 3 3 3 4 4 4 4 4 4 4 4 5 5 4 4
7 7 7 8 8 8 8 8 8 7 6 6 6 6 5 6 5 5 5 4 4 4 5 5 5 5 4 3 4 3 3 3 3 3 3 4 5 4 4 4 5 5 4 3
7 7 7 7 8 8 7 7 7 6 6 5 5 5 5 5 4 4 4 4 3 4 4 4 5 4 3 3 4 2 2 3 3 3 4 4 4 4 3 3 3 3 3 3
7 7 7 7 8 7 7 6 6 6 5 5 5 4 4 4 4 3 3 3 3 4 4 4 4 3 3 3 5 2 2 2 2 3 3 3 3 3 3 3 3 3 3 3
7 7 7 7 7 7 6 5 5 5 5 4 4 4 4 4 3 3 3 3 3 2 3 3 3 3 4 5 3 2 1 2 2 2 2 2 2 3 3 3 3 3 3 3
7 7 7 7 7 6 6 5 5 4 4 4 4 4 4 4 3 3 3 2 2 2 3 3 3 4 6 4 3 2 2 2 2 2 1 2 2 2 2 2 2 2 2 2
6 6 7 7 7 6 5 5 5 4 4 4 4 4 4 3 2 2 2 1 1 2 3 2 2 4 6 4 2 2 2 2 2 2 1 2 2 1 2 2 1 1 1 2
7 6 7 7 6 5 5 5 5 5 5 4 4 3 2 2 2 2 2 2 2 3 3 1 2 4 4 3 2 2 2 1 2 2 1 2 2 2 2 2 2 2 1 1
6 5 5 5 5 5 5 4 4 4 4 4 3 2 2 2 2 2 2 3 3 3 3 2 2 3 3 3 2 2 2 1 2 2 2 2 2 2 1 1 2 2 1 1
6 5 5 5 5 5 5 5 4 4 4 4 4 3 3 2 2 2 2 2 3 3 2 2 2 2 3 2 2 2 2 2 2 2 1 1 1 1 1 2 2 1 2 1
Wind_Direction
262 269 257 255 252 243 244 263 269 277 281 305 324 330 336 337 333 321 315 304 290 280 276 248 224 210 206 197 191 190 188 192 196 197 195 193 194 195 196 199 203 203 206 206
247 242 245 248 254 249 252 261 260 265 276 330 325 325 329 334 329 320 315 311 305 288 270 254 236 220 211 203 197 195 197 197 197 196 195 196 195 194 195 200 206 206 210 211
248 236 248 244 250 244 241 264 270 273 301 318 313 330 330 330 328 323 325 319 306 291 270 260 247 226 214 206 201 202 202 200 197 199 201 199 198 197 199 202 206 210 213 215
252 238 245 209 74 247 233 271 299 301 317 317 313 312 321 343 335 330 328 322 313 301 281 260 246 231 221 207 200 203 205 202 199 201 204 199 201 202 203 205 209 213 217 218
248 245 237 176 181 274 254 257 358 333 331 328 319 288 320 4 337 324 324 323 315 303 289 265 239 222 220 210 204 206 208 205 202 203 206 203 203 204 205 207 211 214 214 216
247 250 248 117 31 304 249 202 33 359 344 333 317 292 357 357 336 331 332 331 325 312 294 269 257 232 222 222 216 217 217 212 206 204 203 206 206 203 201 206 212 216 214 217
248 246 228 30 353 262 233 55 23 1 355 345 340 335 338 336 335 332 331 333 330 314 284 269 254 237 233 231 232 233 227 217 206 206 206 207 205 201 200 205 209 216 216 216
247 243 219 24 5 345 20 22 6 356 351 343 338 331 332 337 339 336 336 337 332 319 299 278 257 239 240 242 243 242 230 218 207 205 210 198 196 199 201 202 202 207 210 216
312 9 53 32 41 32 4 351 348 340 335 330 326 328 333 339 345 343 338 339 331 319 315 304 279 259 251 250 244 231 218 210 203 196 203 198 193 193 194 199 210 207 205 208
261 144 28 27 35 10 349 332 326 323 321 316 319 325 330 337 342 341 339 335 330 321 314 306 288 277 270 264 248 222 214 208 196 189 189 189 193 196 200 199 206 210 211 211
260 295 303 311 349 347 336 327 325 324 319 315 316 315 321 327 333 337 336 332 326 317 307 301 299 291 280 267 242 226 218 213 203 195 186 189 194 204 209 209 220 222 218 216
301 329 308 312 327 326 323 322 320 318 315 314 314 311 313 317 323 324 325 322 315 312 312 310 302 294 291 281 245 230 222 213 212 206 192 195 189 188 151 210 140 204 280 272
304 313 312 306 310 317 313 313 314 310 305 308 313 309 308 311 314 313 312 314 315 309 304 299 295 291 287 278 257 237 234 222 222 215 204 204 200 198 195 188 198 211 210 221
298 296 289 297 305 306 308 308 306 303 299 300 303 305 305 308 309 310 312 312 311 306 299 297 292 290 288 273 257 249 241 219 217 221 217 212 211 209 207 207 199 211 205 199
297 294 291 296 297 301 303 303 298 295 297 296 296 300 300 304 310 312 311 310 309 304 299 295 293 294 292 284 266 255 246 230 214 218 221 218 216 214 212 214 218 217 213 179
298 296 292 294 298 302 302 300 299 296 297 299 298 297 297 298 301 305 307 311 311 310 312 308 304 302 295 285 272 256 242 218 218 223 223 224 223 222 215 212 215 217 222 214
297 299 301 301 299 298 298 297 296 292 291 293 295 296 297 298 298 300 304 310 313 310 309 311 310 304 291 278 267 256 245 209 204 216 221 223 226 226 223 224 223 219 224 206
298 294 294 293 293 295 296 293 292 287 284 285 287 292 296 297 299 305 310 312 310 312 319 322 323 305 291 287 280 265 249 229 219 220 218 218 221 224 224 229 233 230 224 190
304 299 295 293 293 294 294 291 290 288 285 280 282 284 287 293 298 304 308 308 307 312 324 333 324 302 302 306 295 259 247 233 225 225 226 209 218 225 227 229 232 231 231 219
310 308 303 301 300 296 294 294 291 288 288 286 286 287 287 289 293 298 301 299 304 317 320 320 308 303 299 300 290 260 245 230 226 226 225 220 216 222 230 236 242 239 239 236
322 319 314 312 308 302 300 300 299 297 294 291 291 291 290 286 286 290 289 295 305 313 308 297 289 305 313 317 284 273 254 236 233 241 235 225 221 220 226 230 235 237 241 243
326 324 323 322 317 317 320 315 305 301 298 293 293 294 291 288 288 287 282 291 299 318 300 296 308 338 328 299 278 283 279 264 251 247 242 239 232 230 231 233 233 233 235 237
325 323 323 324 322 316 313 309 307 307 310 307 301 296 290 289 290 287 292 298 293 309 299 307 328 314 298 272 277 286 284 276 268 260 256 253 254 247 244 247 253 248 240 238
324 325 323 320 318 313 313 317 319 319 316 307 299 292 284 278 279 285 305 304 304 290 295 329 303 287 275 268 275 275 271 270 278 270 264 263 258 257 256 251 251 248 244 244
324 321 320 323 322 322 318 315 316 319 317 315 311 306 291 284 290 307 313 307 301 279 286 271 246 256 259 274 281 282 277 304 308 301 292 288 283 271 266 259 259 262 253 245
324 317 322 323 321 320 317 312 313 318 322 323 317 316 312 299 287 285 279 282 286 278 275 274 263 250 266 281 289 295 298 279 263 269 290 279 272 271 271 278 273 277 275 253
320 318 316 317 320 322 319 316 312 312 317 322 320 314 305 300 292 296 297 290 285 279 283 282 281 278 280 286 293 296 297 301 296 288 282 279 280 283 276 265 272 277 280 279